Flag Weather past 2 weeks in Worms, Rhineland-Palatinate, Germany

Now
45 °F

Partly cloudy.


Feels Like: 41 °F
Forecast: 35 / 44 °F
Wind: 6 mph from East

Location: Baden Wurttemberg - Neuostheim

Current Time: Nov 27, 2014 at 5:42:11 PM

Latest Report: Nov 27, 2014 at 4:50 PM


Visibility: N/A

Pressure: 29.80 "Hg

Humidity: 87%

Dew point: 41 °F

Location of WormsLocation

Historic Weather in Worms — Graph

°F

Worms temperature yesterday

Maximum temperature yesterday: 45 °F (at 11:20 AM)
Minimum temperature yesterday: 43 °F (at 5:20 AM)
Average temperature yesterday: 44 °F

Past Weeks' High & Low Weather Summary

 TemperatureHumidityPressure
High55 °F (Nov 14, 11:50 AM)100% (Nov 12, 6:50 PM)30.33 "Hg (Nov 12, 6:50 PM)
Low32 °F (Nov 21, 6:50 AM)66% (Nov 21, 11:50 AM)29.59 "Hg (Nov 15, 4:50 PM)
Average47 °F88%29.98 "Hg
* Reported Nov 12 4:20 PM — Nov 27 4:20 PM, Worms, Weather by CustomWeather, © 2014

Note: Actual official high and low records may vary slightly from our data, if they occured in-between our weather recording intervals... More about our weather records

Advertising

Worms weather history for previous 24 hours

 ConditionsComfort  
Time TempWeatherWind HumidityBarometerVisibility
4:20 PM
Nov 27
46 °FMostly cloudy.5 mph82%29.80 "HgN/A
3:50 PM46 °FPartly sunny.5 mph76%29.80 "HgN/A
2:50 PM46 °FPartly sunny.3 mph76%29.80 "HgN/A
2:20 PM46 °FPartly sunny.2 mph76%29.80 "HgN/A
1:50 PM46 °FPartly sunny.3 mph76%29.80 "HgN/A
1:20 PM46 °FPartly sunny.3 mph76%29.80 "HgN/A
12:50 PM46 °FBroken clouds.2 mph76%29.80 "HgN/A
12:20 PM46 °FPartly sunny.2 mph76%29.83 "HgN/A
11:50 AM46 °FOvercast.2 mph76%29.83 "Hg5 mi
11:20 AM45 °FMore clouds than sun.2 mph81%29.83 "HgN/A
10:50 AM45 °FOvercast.5 mph81%29.83 "Hg4 mi
10:20 AM45 °FMore clouds than sun.5 mph81%29.83 "Hg4 mi
9:50 AM45 °FMore clouds than sun.3 mph81%29.83 "Hg4 mi
9:20 AM45 °FMore clouds than sun.5 mph81%29.83 "Hg4 mi
8:50 AM43 °FOvercast.5 mph87%29.86 "Hg4 mi
8:20 AM43 °FOvercast.5 mph87%29.83 "Hg4 mi
7:50 AM43 °FOvercast.5 mph87%29.83 "Hg5 mi
7:20 AM43 °FOvercast.3 mph87%29.86 "Hg5 mi
6:50 AM43 °FOvercast.3 mph87%29.86 "Hg5 mi
6:20 AM43 °FOvercast.2 mph87%29.86 "Hg5 mi
5:50 AM43 °FOvercast.1 mph87%29.86 "Hg5 mi
10:20 PM
Nov 26
45 °FOvercast.2 mph81%29.95 "HgN/A
9:50 PM45 °FOvercast.2 mph81%29.95 "HgN/A
9:20 PM45 °FMostly cloudy.3 mph81%29.95 "HgN/A
8:50 PM45 °FOvercast.2 mph81%29.95 "HgN/A
8:20 PM45 °FOvercast.3 mph76%29.98 "HgN/A
7:50 PM45 °FOvercast.3 mph76%29.98 "HgN/A
7:20 PM45 °FOvercast.2 mph81%29.98 "HgN/A
6:50 PM45 °FMostly cloudy.2 mph81%29.98 "HgN/A
6:20 PM45 °FMostly cloudy.3 mph81%29.98 "HgN/A
5:50 PM45 °FMostly cloudy.5 mph81%29.98 "HgN/A
5:20 PM45 °FOvercast.1 mph76%29.98 "HgN/A
Weather by CustomWeather, © 2014

See weather overviewHow to use our weather pages